Location: Unspecified
(41.1850°N, 73.2650°W)
Time: 03:44:19
(UTC+00:00)

SL-08 R/B - Pass Details

Date: 18 March 2026
Orbit: 946 x 992 km, 83.0° (Epoch: 13 April)

Event Time Altitude Azimuth Distance (km) Brightness Sun altitude
Exits shadow 00:03:02 16° 98° (E) 2,250 5.7 -12.2°
Maximum altitude 00:04:24 17° 82° (E) 2,180 5.8 -12.5°
Drops below altitude 10° 00:08:12 10° 43° (NE) 2,673 6.5 -13.2°
Sets 00:11:32 0° 25° (NNE) 3,623 7.3 -13.8°
